TimeEDT,TemperatureF,Dew PointF,Humidity,Sea Level PressureIn,VisibilityMPH,Wind Direction,Wind SpeedMPH,Gust SpeedMPH,PrecipitationIn,Events,Conditions,WindDirDegrees,DateUTC
12:53 AM,82.0,69.1,65,30.02,10.0,East,10.4,-,N/A,,Scattered Clouds,80,2013-04-18 04:53:00
1:53 AM,81.0,68.0,65,30.00,10.0,East,9.2,-,N/A,,Partly Cloudy,90,2013-04-18 05:53:00
2:14 AM,80.6,69.8,70,29.99,10.0,East,10.4,19.6,N/A,,Mostly Cloudy,80,2013-04-18 06:14:00
2:24 AM,80.6,69.8,70,29.99,10.0,East,10.4,-,N/A,,Scattered Clouds,90,2013-04-18 06:24:00
2:53 AM,81.0,70.0,69,29.98,10.0,East,9.2,-,N/A,,Clear,80,2013-04-18 06:53:00
3:35 AM,80.6,71.6,74,29.98,6.0,East,10.4,23.0,0.00,Rain,Rain,100,2013-04-18 07:35:00
3:42 AM,78.8,71.6,78,29.98,4.0,ESE,12.7,20.7,0.01,Rain,Light Rain,110,2013-04-18 07:42:00
3:53 AM,77.0,71.1,82,29.98,4.0,East,6.9,-,0.02,Rain,Light Rain,80,2013-04-18 07:53:00
4:53 AM,78.1,69.1,74,29.98,10.0,East,12.7,19.6,0.02,,Mostly Cloudy,90,2013-04-18 08:53:00
5:53 AM,78.1,68.0,71,29.98,10.0,East,10.4,-,0.01,,Overcast,80,2013-04-18 09:53:00
6:53 AM,80.1,68.0,67,29.99,10.0,East,10.4,-,N/A,,Overcast,90,2013-04-18 10:53:00
7:53 AM,81.0,70.0,69,30.01,10.0,East,8.1,-,N/A,,Partly Cloudy,100,2013-04-18 11:53:00
8:53 AM,82.9,69.1,63,30.02,10.0,ESE,9.2,17.3,N/A,,Overcast,110,2013-04-18 12:53:00
9:41 AM,84.2,69.8,62,30.03,10.0,SE,9.2,16.1,N/A,,Mostly Cloudy,130,2013-04-18 13:41:00
9:51 AM,84.2,71.6,66,30.03,10.0,ESE,8.1,-,N/A,,Scattered Clouds,120,2013-04-18 13:51:00
9:53 AM,86.0,71.1,61,30.03,10.0,ESE,8.1,-,N/A,,Scattered Clouds,110,2013-04-18 13:53:00
10:53 AM,86.0,70.0,59,30.04,10.0,ESE,9.2,-,N/A,,Partly Cloudy,120,2013-04-18 14:53:00
11:53 AM,88.0,71.1,57,30.03,10.0,ESE,10.4,-,N/A,,Partly Cloudy,110,2013-04-18 15:53:00
12:53 PM,88.0,71.1,57,30.01,10.0,ESE,10.4,-,N/A,,Partly Cloudy,110,2013-04-18 16:53:00
1:53 PM,88.0,70.0,55,30.00,10.0,ESE,11.5,19.6,N/A,,Clear,120,2013-04-18 17:53:00
2:53 PM,88.0,71.1,57,29.99,10.0,ESE,9.2,19.6,N/A,,Partly Cloudy,110,2013-04-18 18:53:00
3:53 PM,88.0,70.0,55,29.98,10.0,ESE,11.5,18.4,N/A,,Partly Cloudy,120,2013-04-18 19:53:00
4:53 PM,88.0,72.0,59,29.97,10.0,ESE,11.5,-,N/A,,Partly Cloudy,120,2013-04-18 20:53:00
5:53 PM,86.0,70.0,59,29.97,10.0,ESE,9.2,-,N/A,,Partly Cloudy,120,2013-04-18 21:53:00
6:53 PM,84.0,69.1,61,29.97,10.0,ESE,8.1,17.3,N/A,,Partly Cloudy,120,2013-04-18 22:53:00
7:53 PM,82.9,70.0,65,29.97,10.0,ESE,10.4,17.3,N/A,,Clear,110,2013-04-18 23:53:00
8:53 PM,82.9,69.1,63,29.98,10.0,ESE,12.7,17.3,N/A,,Clear,120,2013-04-19 00:53:00
9:53 PM,82.9,70.0,65,29.99,10.0,ESE,9.2,18.4,N/A,,Clear,120,2013-04-19 01:53:00
10:53 PM,82.0,70.0,67,30.00,10.0,ESE,10.4,19.6,N/A,,Partly Cloudy,110,2013-04-19 02:53:00
11:53 PM,81.0,70.0,69,30.01,10.0,ESE,11.5,21.9,N/A,,Scattered Clouds,120,2013-04-19 03:53:00